RH
51 50 53 55 56 55 53 54 53 51 52 52 52 54 55 55 54 56 59 55 53 58 60 58 57 56 55 55 54 53 51 49 46 44 44 43 43 42 40 39 38 36 33 31 32 33 35 35 35 35 35 35 35 35 35 35 35 34 32 30 31 32 32 32 33 34 35 36 36 35 31 27 24 24 25 25 24 22 22 22 23 27 28 28 29
54 54 55 54 54 55 53 53 53 51 50 49 52 52 51 51 52 57 57 52 49 52 55 57 58 56 53 53 54 54 54 50 48 46 44 43 42 41 40 39 38 37 35 34 32 31 31 31 31 32 32 34 34 33 33 33 32 31 30 31 33 34 34 34 35 35 36 35 34 31 27 24 24 25 25 23 21 21 21 23 25 27 27 28 30
54 54 54 54 54 55 54 53 52 49 48 49 49 48 47 47 51 57 56 50 49 51 52 53 58 57 53 54 57 57 55 51 49 46 44 42 40 39 38 37 36 35 34 34 33 31 29 28 28 28 29 30 31 31 33 33 34 34 35 36 37 37 37 36 36 34 33 33 31 28 25 25 25 25 24 22 20 21 22 24 25 26 28 30 30
54 53 53 54 54 55 55 54 53 50 48 49 48 48 47 44 48 55 54 50 51 52 50 48 52 55 57 58 58 58 56 53 50 46 43 41 40 38 37 36 35 34 34 34 33 32 30 29 28 28 28 29 30 32 33 34 36 36 36 36 36 35 34 32 32 30 29 29 27 26 25 25 25 25 24 21 20 22 23 25 26 28 30 29 29
55 53 53 55 54 55 53 52 52 52 51 49 48 47 46 44 46 51 50 50 53 54 51 49 49 51 57 60 59 58 56 53 49 46 43 40 39 38 37 36 36 36 36 34 32 32 32 30 29 29 29 30 32 33 33 34 35 36 35 34 32 31 30 29 28 28 27 27 26 26 26 26 26 25 23 22 22 24 24 26 28 30 30 29 31
55 53 54 55 53 53 54 55 54 53 52 50 48 46 45 46 47 48 49 49 52 53 51 50 50 48 54 62 61 57 52 50 47 46 44 41 40 37 35 35 35 35 36 35 33 32 32 31 31 30 31 31 33 34 34 36 36 35 34 32 31 30 30 28 27 27 27 26 26 27 27 28 26 25 23 23 23 24 25 28 30 31 30 32 32
55 56 56 57 56 55 56 58 58 54 51 48 46 46 46 48 49 50 51 50 50 51 49 48 49 47 50 57 57 51 49 48 46 45 44 43 43 39 37 37 37 37 36 35 33 31 32 33 34 34 34 35 35 36 36 37 36 34 32 32 32 31 29 28 28 28 28 28 29 30 29 28 26 26 24 24 24 25 28 31 31 32 33 33 32
55 56 55 56 57 56 56 57 58 56 54 50 48 48 49 49 49 50 52 50 48 48 46 45 46 44 44 49 50 49 49 47 45 44 43 43 43 40 39 40 40 39 37 36 33 32 32 34 37 38 37 36 35 36 35 35 34 33 32 32 32 31 30 30 29 30 30 30 30 30 31 28 27 26 25 24 25 28 31 32 33 34 35 35 34
55 55 54 55 55 55 55 55 55 54 54 54 51 50 49 49 48 49 52 50 46 44 44 43 43 42 43 46 49 51 48 45 44 45 44 43 42 39 39 39 38 38 39 38 35 33 32 33 37 39 38 36 32 32 32 32 32 32 32 33 31 31 30 31 32 31 31 31 31 31 32 29 27 26 25 25 28 30 33 33 34 36 36 36 36
54 54 53 55 55 53 54 55 54 53 54 54 52 50 48 49 49 49 51 49 45 44 45 44 40 39 42 44 48 50 46 42 41 41 42 43 41 37 37 37 38 40 40 40 38 36 35 35 36 37 37 33 28 28 31 31 32 32 31 30 29 30 31 31 31 31 31 31 32 32 31 28 26 26 26 27 29 32 33 34 36 37 36 37 39
53 53 52 55 54 53 54 55 54 51 52 52 50 48 48 49 50 50 51 49 47 47 47 44 37 36 39 41 44 47 45 44 43 40 41 43 40 38 36 34 37 41 40 39 39 37 35 36 35 35 36 32 28 28 30 30 30 29 28 28 29 30 29 28 27 28 30 31 32 32 30 28 27 27 27 28 31 33 34 35 37 38 38 40 43
52 51 53 56 52 53 55 54 53 52 49 47 46 46 47 47 48 50 50 49 49 49 47 43 37 35 37 40 42 43 43 43 43 40 39 39 39 38 34 33 35 36 35 37 37 35 34 34 34 34 33 33 32 32 30 28 28 28 27 27 27 27 25 24 24 25 27 29 30 30 29 27 27 27 27 30 33 33 34 36 38 38 40 41 44
49 49 53 56 52 53 54 51 52 54 48 44 43 44 46 46 46 48 50 51 50 48 44 40 37 34 36 40 41 42 42 43 43 39 35 35 37 37 33 33 34 32 32 33 33 33 31 30 29 29 30 30 29 29 28 29 30 29 27 25 23 23 22 22 23 24 26 27 28 28 27 27 27 28 30 33 34 35 36 37 38 39 40 42 44
48 50 52 53 51 50 50 48 47 48 46 44 44 45 47 46 46 47 49 50 49 46 42 38 36 34 36 40 40 42 42 43 43 38 35 37 38 37 34 34 33 31 31 31 29 29 27 25 24 25 26 25 23 25 27 28 29 27 23 22 22 22 23 24 25 26 27 28 28 28 27 28 28 31 33 36 36 36 38 39 40 41 41 43 43
45 48 48 48 46 45 46 46 45 46 47 47 48 46 45 45 44 45 46 47 47 45 41 39 36 35 37 39 39 42 43 43 43 39 38 38 37 36 35 35 34 32 32 31 28 26 25 23 23 24 22 21 21 24 25 25 25 24 22 22 23 24 25 26 27 27 28 28 28 28 29 30 32 35 37 37 37 39 40 42 42 43 44 44 43
41 44 46 46 44 44 45 45 46 49 48 48 49 48 47 45 42 42 43 44 44 44 42 41 38 37 39 38 38 41 42 40 40 39 38 38 37 37 36 35 33 32 33 31 28 25 24 24 24 22 21 22 23 24 23 23 24 24 24 24 25 26 27 27 28 28 28 29 29 31 32 34 36 37 38 38 39 40 41 42 42 43 44 44 43
39 42 46 47 44 43 45 46 46 47 47 46 46 49 52 50 43 40 39 38 38 41 40 40 39 37 39 38 37 40 40 37 38 38 37 36 37 36 35 35 32 31 33 31 28 26 25 25 23 21 22 24 24 23 24 24 25 26 26 26 27 28 28 29 29 29 30 31 32 33 35 36 37 38 38 38 39 40 40 41 42 43 44 43 44
35 38 42 46 44 41 42 45 46 45 46 45 44 48 52 50 45 40 37 36 35 37 38 39 38 37 38 37 37 39 39 38 38 37 35 36 38 36 36 35 32 30 32 30 29 27 26 25 24 23 25 26 25 25 25 25 27 28 28 28 29 31 31 31 31 31 31 32 33 34 35 36 37 37 38 39 40 40 41 42 44 45 45 45 45
32 34 37 42 42 40 41 43 45 47 46 43 43 47 47 45 43 40 37 36 33 32 34 35 35 35 36 37 36 38 38 36 35 35 34 35 38 38 36 34 31 31 30 28 28 27 25 25 26 27 28 28 28 27 25 26 28 29 30 31 31 32 32 32 32 33 33 34 35 35 36 36 37 37 38 40 40 42 44 44 46 47 48 48 47
31 32 34 37 38 38 39 41 43 47 47 44 43 44 43 40 39 38 36 34 32 32 32 31 34 36 38 36 34 35 37 34 32 32 33 36 39 40 37 33 29 30 29 26 26 26 24 25 27 28 28 29 29 28 27 27 28 30 30 31 32 32 32 33 33 35 36 37 37 37 37 37 37 38 39 40 42 44 44 44 45 48 49 49 47
30 32 32 33 35 35 35 36 38 40 42 42 40 37 37 37 38 36 35 33 32 33 32 30 32 35 38 37 32 31 34 34 32 33 36 39 42 42 39 34 29 26 26 25 25 25 24 25 27 27 27 30 31 30 30 29 29 31 31 31 32 33 33 34 35 36 36 36 37 39 40 41 41 42 42 42 43 44 44 42 42 45 46 46 45
29 30 31 31 32 32 32 33 33 34 35 36 37 36 36 36 36 35 34 33 33 33 32 31 32 33 34 33 29 28 32 34 32 33 36 38 40 41 38 33 28 24 25 24 24 24 23 25 27 28 29 32 33 33 32 31 31 32 32 32 33 34 35 36 36 35 36 37 40 42 43 44 45 46 45 44 44 44 44 43 41 42 43 43 43
28 28 30 30 30 31 31 30 30 32 34 35 36 36 36 35 34 35 34 32 32 31 31 31 33 32 29 28 26 26 31 33 32 33 36 37 39 39 34 28 26 25 25 25 25 24 25 28 30 31 32 33 34 34 33 33 33 33 33 34 34 35 35 35 36 36 38 40 42 43 43 43 46 47 46 45 45 44 44 43 43 43 42 42 42
27 27 29 29 28 29 31 30 29 29 32 35 37 36 36 35 34 35 36 34 31 28 28 31 32 30 28 27 28 29 31 32 32 35 37 37 37 34 28 26 26 26 27 28 28 28 30 31 33 34 35 34 33 34 34 34 34 34 34 34 34 35 34 35 36 37 39 40 41 41 40 40 41 42 42 42 42 42 42 43 43 43 43 42 41
25 26 28 29 28 27 28 30 29 27 28 33 37 37 37 36 35 35 36 36 35 31 29 29 28 28 28 28 30 30 30 30 32 35 35 35 34 30 28 28 28 29 30 30 30 30 32 33 34 34 35 34 34 35 36 34 33 33 33 33 35 36 37 36 35 36 38 39 39 38 37 36 37 37 38 39 39 41 42 43 43 43 42 42 42
23 24 26 28 29 28 27 28 29 28 28 29 33 37 39 38 35 35 34 36 38 36 32 29 27 29 30 31 31 31 31 30 30 31 30 30 30 29 28 29 30 32 33 32 31 32 32 33 34 34 34 34 35 36 37 36 34 33 34 35 37 38 39 39 36 37 39 37 36 35 35 36 36 38 39 40 41 41 42 43 42 43 42 42 43
22 23 24 25 27 28 28 29 30 29 29 29 29 32 36 37 35 34 34 34 36 38 36 33 30 30 33 35 34 33 33 30 28 27 27 27 29 30 30 30 30 31 32 33 33 34 34 34 34 35 34 34 35 35 37 37 36 36 36 37 38 38 38 37 37 40 41 37 35 36 37 39 40 41 42 42 42 42 42 43 43 42 42 42 43
20 22 23 24 25 26 28 29 29 29 30 30 29 28 30 32 32 32 32 33 36 38 40 39 37 35 36 37 37 35 33 31 29 29 28 29 30 31 32 32 30 28 32 34 34 34 35 36 36 35 34 34 34 35 36 37 37 37 38 38 38 37 37 37 40 44 43 39 39 40 41 42 43 43 43 42 42 42 42 42 42 42 41 41 42
20 20 22 24 25 25 27 28 28 28 29 30 31 29 27 28 29 30 32 34 35 38 39 41 39 37 37 37 36 36 34 32 32 32 31 32 32 31 30 30 27 26 30 32 33 33 35 36 36 35 35 34 34 35 37 37 38 38 38 38 38 38 39 42 44 46 45 43 43 44 44 44 44 42 41 40 41 41 42 42 42 42 41 41 41
19 20 20 22 24 25 26 29 29 28 28 29 30 30 30 29 29 30 32 33 33 34 36 38 38 38 38 37 35 35 35 33 32 33 34 34 32 30 27 25 25 25 26 28 28 30 34 36 35 34 34 34 34 36 37 38 37 37 37 38 41 44 46 48 49 49 48 47 47 47 46 46 44 42 41 41 42 43 44 44 44 43 41 40 39
18 20 21 21 22 23 25 28 31 29 27 28 28 29 31 33 33 31 30 31 31 31 33 34 36 37 38 38 37 37 36 33 31 32 34 34 32 30 27 24 25 25 25 26 26 27 29 32 33 33 33 33 34 34 35 36 36 36 40 44 47 49 49 49 50 49 49 49 49 48 47 46 45 43 43 44 45 47 47 47 46 43 41 39 39
17 19 21 22 21 21 22 24 28 30 29 28 28 29 31 33 33 32 31 31 30 30 31 32 34 36 36 38 39 39 39 36 32 32 33 34 34 32 29 28 27 26 27 28 27 25 26 27 28 29 29 30 30 31 34 34 34 38 44 48 49 48 47 48 48 48 48 47 47 46 45 45 45 45 47 48 49 49 48 47 45 42 39 39 38
17 19 21 21 21 21 21 21 24 27 28 28 28 30 31 31 31 31 32 32 31 31 31 31 32 33 35 37 39 40 39 37 33 31 32 36 36 32 31 29 29 29 29 29 28 27 27 26 25 25 25 27 27 29 32 33 34 38 43 44 44 44 45 47 47 47 47 47 47 46 45 46 47 49 51 52 52 50 47 45 43 40 39 38 38
16 18 20 20 21 22 22 21 21 24 25 27 28 29 28 29 28 29 29 31 33 33 32 32 30 31 33 34 36 37 36 35 33 31 31 33 33 32 32 32 32 33 33 33 32 31 28 25 24 23 23 24 24 26 31 33 34 36 37 38 41 44 46 47 48 49 49 49 48 48 48 49 49 50 51 52 51 49 47 44 41 39 39 38 38
16 18 19 19 19 21 22 21 21 22 23 24 25 26 25 24 24 25 26 27 29 31 32 33 31 31 32 32 32 32 32 32 31 30 29 30 30 31 33 35 36 36 36 35 34 32 28 24 22 21 22 22 21 25 32 36 35 34 35 39 42 45 46 48 50 51 51 50 49 49 50 51 50 51 51 51 51 49 45 43 40 39 38 37 37
17 18 19 19 19 20 20 20 20 21 22 22 23 23 22 22 22 22 22 23 24 26 27 28 30 30 30 30 30 30 30 30 29 29 28 27 28 28 31 35 36 36 36 36 34 32 30 25 22 21 21 20 20 25 34 38 37 36 38 41 44 45 47 50 52 54 54 52 51 50 51 52 51 51 50 51 51 49 45 42 40 38 34 32 33
18 18 20 19 19 19 19 18 17 18 19 21 22 22 21 20 20 20 20 21 22 23 23 24 26 27 27 27 27 27 27 27 27 27 27 26 26 26 27 30 33 34 35 35 34 33 32 27 22 19 19 19 20 26 36 42 42 39 40 44 47 49 51 54 57 59 58 56 53 53 53 53 52 50 51 51 51 50 45 40 37 33 31 31 33
20 20 20 20 19 18 18 17 16 16 16 17 20 21 21 19 18 18 18 19 20 22 22 23 24 24 23 24 24 25 25 24 24 24 24 24 24 24 25 25 27 29 31 32 32 31 30 26 21 19 19 20 22 27 37 46 46 42 43 46 50 54 57 60 61 60 59 57 55 55 55 54 52 51 51 51 51 48 42 36 32 31 32 34 36
22 22 21 21 21 19 18 17 16 15 15 15 17 19 19 17 16 16 16 18 20 20 21 22 23 23 22 20 20 21 22 23 23 22 22 22 23 23 23 23 24 26 27 28 29 29 27 24 21 19 20 21 24 29 39 46 45 45 49 51 52 56 62 64 62 58 57 56 55 54 54 53 52 51 51 50 49 45 38 34 34 35 36 38 37
23 23 21 21 21 20 18 17 16 16 16 16 16 17 17 16 15 15 16 16 18 20 21 21 22 22 20 18 18 18 18 19 21 21 21 21 22 23 23 23 24 25 26 26 26 25 24 22 20 20 21 23 25 31 38 43 44 47 52 56 56 58 61 63 61 57 53 53 54 53 54 54 53 51 51 49 47 42 37 36 37 38 38 38 38
23 23 23 22 23 22 19 18 18 18 18 17 16 16 17 16 16 15 15 16 16 18 19 20 21 21 20 18 16 16 16 17 18 20 20 20 20 21 22 23 23 23 23 24 25 24 22 20 19 20 22 24 26 29 34 39 43 46 52 57 58 58 59 59 57 54 49 50 53 53 52 52 53 53 51 49 45 40 36 37 39 39 38 37 36
22 23 24 24 24 23 21 19 19 19 20 19 18 17 17 17 17 16 16 16 16 17 18 18 20 21 20 18 16 15 15 15 15 17 18 19 19 20 21 22 22 22 22 23 24 23 20 19 19 21 23 25 25 27 30 35 40 46 50 52 53 56 57 55 53 51 49 50 52 51 48 50 53 52 51 48 44 40 38 39 39 38 38 37 34
23 23 24 25 25 25 23 21 20 20 20 20 19 17 16 17 18 17 17 16 16 17 16 17 19 20 19 18 16 14 13 13 13 15 16 18 19 20 21 23 23 23 22 22 22 22 19 18 20 23 24 25 25 27 30 32 36 41 44 44 47 51 53 52 51 52 51 51 53 50 46 48 51 51 49 49 45 42 42 40 38 37 36 35 33
23 24 24 25 24 25 25 24 22 20 20 19 18 17 16 16 17 17 17 17 17 17 16 16 17 19 20 19 17 15 14 13 14 17 20 21 21 22 22 23 23 23 22 21 21 21 20 20 22 25 25 26 28 28 29 32 35 38 40 42 44 47 50 52 54 54 53 52 53 51 47 46 48 48 49 50 48 46 44 39 35 34 33 33 34
23 24 24 24 25 25 26 26 24 22 20 19 18 18 16 15 16 17 18 18 17 17 16 15 17 19 20 20 19 17 15 14 16 19 21 22 22 23 23 23 23 22 22 20 19 19 21 22 25 26 25 26 28 28 30 35 38 39 41 44 45 47 50 53 55 54 52 51 52 51 47 46 47 47 49 52 49 45 41 36 32 32 31 31 32
23 23 23 23 24 25 25 26 26 24 21 19 18 18 16 15 15 16 17 18 18 17 16 14 15 18 19 19 19 19 18 17 17 17 17 18 19 20 21 22 21 20 20 19 17 18 21 23 25 27 26 26 28 30 32 36 39 41 43 45 48 49 50 51 52 51 49 48 50 50 48 47 47 47 50 51 46 41 37 33 31 29 29 29 27
24 23 23 23 23 24 25 26 26 26 23 21 19 18 17 16 16 16 17 18 18 18 16 15 14 16 18 19 19 19 19 19 20 19 19 19 21 21 21 21 20 18 17 17 16 18 20 23 26 27 27 27 29 32 35 39 42 43 44 47 48 49 50 50 48 46 44 44 46 48 48 48 48 48 49 46 40 35 33 31 29 28 27 26 26
25 24 24 24 23 23 24 25 26 26 25 23 21 19 17 17 17 18 19 19 20 19 17 16 14 14 16 18 18 19 20 20 21 21 22 22 23 23 21 20 19 17 15 15 16 17 20 22 25 27 29 30 32 36 40 44 45 46 47 48 49 49 50 48 45 42 40 41 44 46 46 48 48 47 45 41 34 31 31 30 28 26 26 27 27
28 25 24 24 24 23 23 23 24 25 25 25 23 21 18 18 18 20 20 21 21 20 18 16 15 14 14 16 17 18 19 19 19 21 23 23 23 21 19 17 17 17 15 16 17 18 20 22 25 29 31 33 36 40 43 46 47 48 49 49 48 48 48 45 43 41 39 39 42 44 47 49 48 44 41 37 32 30 30 30 28 27 28 29 29
30 27 25 25 24 23 22 22 22 23 24 24 24 23 20 19 20 20 20 21 21 20 18 17 16 15 14 15 16 18 19 18 18 20 23 24 23 21 18 16 16 16 15 16 18 19 20 24 28 32 35 37 39 42 44 46 48 48 49 48 47 47 46 43 42 41 40 40 43 45 47 49 46 41 38 36 32 31 30 29 29 28 29 29 28
36 32 29 26 24 24 23 22 21 21 22 23 23 24 23 21 21 20 20 21 21 20 18 17 16 16 15 15 17 19 18 18 19 21 22 24 24 22 19 18 17 15 14 17 20 22 24 28 32 36 39 42 44 45 45 45 46 47 48 47 46 47 47 44 43 43 42 44 47 48 49 48 44 41 40 36 33 33 32 30 29 29 29 28 26